1313280033029,17.3939
1313280093029,17.3834
1313280153029,17.3679
1313280213029,17.3273
1313280273029,17.3681
1313280333029,17.3963
1313280393029,17.4216
1313280453029,17.3874
1313280513029,17.3586
1313280573029,17.4306
1313280633029,17.3397
1313280693029,17.3475
1313280753029,17.3384
1313280813029,17.3833
1313280873029,17.3702
1313280933029,17.3933
1313280993029,17.3568
1313281053029,17.3497
1313281113029,17.3732
1313281173029,17.3689
1313281233029,17.3512
1313281293029,17.3506
1313281353029,17.3084
1313281413029,17.3345
1313281473029,17.3699
1313281533029,17.3624
1313281593029,17.3071
1313281653029,17.3999
1313281713029,17.3626
1313281773029,17.3579
1313281833029,17.3742
1313281893029,17.3770
1313281953029,17.3505
1313282013029,17.3463
1313282073029,17.3486
1313282133029,17.3876
1313282193029,17.3901
1313282253029,17.3897
1313282313029,17.3358
1313282373029,17.3509
1313282433029,17.3397
1313282493029,17.4451
1313282553029,17.3857
1313282613029,17.4012
1313282673029,17.3833
1313282733029,17.3297
1313282793029,17.3966
1313282853029,17.3900
1313282913029,17.4378
1313282973029,17.3974
1313283033029,17.4347
1313283093029,17.4066
1313283153029,17.3481
1313283213029,17.4351
1313283273029,17.3904
1313283333029,17.3983
1313283393029,17.3912
1313283453029,17.3699
1313283513029,17.3933
1313283573029,17.3595
1313283633039,17.4436
1313283693039,17.4065
1313283753039,17.3696
1313283813039,17.3805
1313283873039,17.3690
1313283933039,17.3554
1313283993039,17.3843
1313284053039,17.3804
1313284113039,17.3872
1313284173039,17.3406
1313284233039,17.3025
1313284293039,17.3599
1313284353039,17.3602
1313284413039,17.3505
1313284473039,17.3332
1313284533039,17.3814
1313284593039,17.4031
1313284653039,17.4252
1313284713039,17.4608
1313284773039,17.4187
1313284833039,17.4077
1313284893039,17.4060
1313284953039,17.3937
1313285013039,17.3815
1313285073039,17.3993
1313285133039,17.4094
1313285193039,17.3908
1313285253039,17.3440
1313285313039,17.3849
1313285373039,17.3976
1313285433039,17.3398
1313285493039,17.3903
1313285553039,17.3416
1313285613039,17.3779
1313285673039,17.3634
1313285733039,17.3957
1313285793039,17.3327
1313285853039,17.4018
1313285913039,17.3720
1313285973039,17.3574
1313286033039,17.3124
1313286093039,17.3352
1313286153039,17.3031
1313286213039,17.3365
1313286273039,17.3094
1313286333039,17.3277
1313286393039,17.3283
1313286453039,17.3623
1313286513039,17.2879
1313286573039,17.3563
1313286633039,17.3838
1313286693039,17.3696
1313286753039,17.3345
1313286813039,17.3330
1313286873039,17.3421
1313286933039,17.3588
1313286993039,17.3207
1313287053039,17.3430
1313287113039,17.3326
1313287173039,17.3305
1313287233048,17.3997
1313287293048,17.3269
1313287353048,17.3185
1313287413048,17.3760
1313287473048,17.3864
1313287533048,17.3133
1313287593048,17.3986
1313287653048,17.3180
1313287713048,17.3207
1313287773048,17.3808
1313287833048,17.3677
1313287893048,17.3763
1313287953048,17.3630
1313288013048,17.3818
1313288073048,17.3581
1313288133048,17.3646
1313288193048,17.4297
1313288253048,17.3788
1313288313048,17.3640
1313288373048,17.4026
1313288433048,17.3967
1313288493048,17.4126
1313288553048,17.3929
1313288613048,17.3632
1313288673048,17.3707
1313288733048,17.3747
1313288793048,17.3846
1313288853048,17.3889
1313288913048,17.3589
1313288973048,17.4165
1313289033048,17.3712
1313289093048,17.3847
1313289153048,17.4228
1313289213048,17.4396
1313289273048,17.4161
1313289333048,17.3937
1313289393048,17.3922
1313289453048,17.4385
1313289513048,17.3731
1313289573048,17.4361
1313289633048,17.4212
1313289693048,17.4317
1313289753048,17.4024
1313289813048,17.4035
1313289873048,17.4331
1313289933048,17.4166
1313289993048,17.4126
1313290053048,17.4471
1313290113048,17.4234
1313290173048,17.4115
1313290233048,17.4334
1313290293048,17.4370
1313290353048,17.4455
1313290413048,17.3994
1313290473048,17.3649
1313290533048,17.3748
1313290593048,17.4150
1313290653048,17.4204
1313290713048,17.4284
1313290773048,17.3869
1313290833058,17.3968
1313290893058,17.3691
1313290953058,17.4334
1313291013058,17.4194
1313291073058,17.3718
1313291133058,17.4226
1313291193058,17.4287
1313291253058,17.4252
1313291313058,17.3448
1313291373058,17.4140
1313291433058,17.3885
1313291493058,17.4094
1313291553058,17.4021
1313291613058,17.3719
1313291673058,17.4258
1313291733058,17.4245
1313291793058,17.4350
1313291853058,17.3384
1313291913058,17.3711
1313291973058,17.3705
1313292033058,17.3285
1313292093058,17.3296
1313292153058,17.3613
1313292213058,17.3684
1313292273058,17.3929
1313292333058,17.4018
1313292393058,17.4195
1313292453058,17.4153
1313292513058,17.4022
1313292573058,17.4201
1313292633058,17.4549
1313292693058,17.4121
1313292753058,17.4217
1313292813058,17.4175
1313292873058,17.3934
1313292933058,17.3885
1313292993058,17.3886
1313293053058,17.3492
1313293113058,17.3693
1313293173058,17.3920
1313293233058,17.3622
1313293293058,17.3337
1313293353058,17.3892
1313293413058,17.4095
1313293473058,17.3875
1313293533058,17.3918
1313293593058,17.3779
1313293653058,17.3440
1313293713058,17.3315
1313293773058,17.3383
1313293833058,17.3282
1313293893058,17.3925
1313293953058,17.3368
1313294013058,17.3537
1313294073058,17.3304
1313294133058,17.3366
1313294193058,17.3656
1313294253058,17.4017
1313294313058,17.3915
1313294373058,17.3563
1313294433067,17.3376
1313294493067,17.3998
1313294553067,17.3827
1313294613067,17.3842
1313294673067,17.3620
1313294733067,17.3891
1313294793067,17.3557
1313294853067,17.3580
1313294913067,17.4090
1313294973067,17.3977
1313295033067,17.3504
1313295093067,17.3962
1313295153067,17.3472
1313295213067,17.3776
1313295273067,17.3937
1313295333067,17.3964
1313295393067,17.3939
1313295453067,17.3668
1313295513067,17.4124
1313295573067,17.4072
1313295633067,17.3706
1313295693067,17.4450
1313295753067,17.3835
1313295813067,17.4144
1313295873067,17.3958
1313295933067,17.4707
1313295993067,17.4160
1313296053067,17.4570
1313296113067,17.4118
1313296173067,17.3975
1313296233067,17.3961
1313296293067,17.4121
1313296353067,17.4039
1313296413067,17.4236
1313296473067,17.3852
1313296533067,17.3999
1313296593067,17.3844
1313296653067,17.3834
1313296713067,17.4145
1313296773067,17.3769
1313296833067,17.3705
1313296893067,17.3917
1313296953067,17.3596
1313297013067,17.3717
1313297073067,17.4043
1313297133067,17.4006
1313297193067,17.3415
1313297253067,17.3731
1313297313067,17.3768
1313297373067,17.3796
1313297433067,17.3725
1313297493067,17.3446
1313297553067,17.3762
1313297613067,17.3917
1313297673067,17.4099
1313297733067,17.3556
1313297793067,17.4142
1313297853067,17.3994
1313297913067,17.3948
1313297973067,17.3901
1313298033077,17.3999
1313298093076,17.4181
1313298153076,17.3891
1313298213077,17.3834
1313298273077,17.3400
1313298333077,17.3503
1313298393077,17.3804
1313298453077,17.4280
1313298513077,17.3715
1313298573077,17.3861
1313298633077,17.3577
1313298693077,17.3740
1313298753077,17.3826
1313298813077,17.3773
1313298873077,17.4317
1313298933077,17.4317
1313298993077,17.3664
1313299053077,17.3520
1313299113077,17.3510
1313299173077,17.3920
1313299233077,17.4040
1313299293077,17.2198
1313299353077,17.3736
1313299413076,17.3747
1313299473076,17.3361
1313299533077,17.3914
1313299593077,17.3444
1313299653077,17.3691
1313299713077,17.3920
1313299773077,17.3643
1313299833077,17.3731
1313299893077,17.4140
1313299953077,17.3086
1313300013077,17.3426
1313300073077,17.3481
1313300133077,17.3728
1313300193077,17.3604
1313300253077,17.3358
1313300313077,17.3982
1313300373077,17.3573
1313300433077,17.3787
1313300493077,17.3880
1313300553077,17.3568
1313300613077,17.3732
1313300673077,17.4012
1313300733077,17.3797
1313300793076,17.3613
1313300853076,17.3291
1313300913077,17.3461
1313300973077,17.3752
1313301033077,17.3674
1313301093077,17.4254
1313301153077,17.3995
1313301213077,17.4139
1313301273077,17.4205
1313301333077,17.4507
1313301393077,17.4079
1313301453077,17.3786
1313301513077,17.4525
1313301573077,17.4537
1313301633086,17.3657
1313301693086,17.3625
1313301753086,17.4173
1313301813086,17.3345
1313301873086,17.4096
1313301933086,17.4217
1313301993086,17.4344
1313302053086,17.3592
1313302113086,17.4014
1313302173086,17.4375
1313302233086,17.3886
1313302293086,17.4206
1313302353086,17.4061
1313302413086,17.4305
1313302473086,17.3437
1313302533086,17.3469
1313302593086,17.4023
1313302653086,17.3773
1313302713086,17.3579
1313302773086,17.4072
1313302833086,17.3716
1313302893086,17.3633
1313302953086,17.3744
1313303013086,17.4035
1313303073086,17.3565
1313303133086,17.3931
1313303193086,17.3880
1313303253086,17.3714
1313303313086,17.3563
1313303373086,17.3983
1313303433086,17.4153
1313303493086,17.4355
1313303553086,17.3585
1313303613086,17.4055
1313303673086,17.3411
1313303733086,17.3687
1313303793086,17.4150
1313303853086,17.3904
1313303913086,17.3524
1313303973086,17.3951
1313304033086,17.3861
1313304093086,17.3831
1313304153086,17.3717
1313304213086,17.4135
1313304273086,17.4004
1313304333086,17.3995
1313304393086,17.3586
1313304453086,17.4074
1313304513086,17.3672
1313304573086,17.3873
1313304633086,17.4343
1313304693086,17.4639
1313304753086,17.4798
1313304813086,17.4392
1313304873086,17.4479
1313304933086,17.4431
1313304993086,17.4339
1313305053086,17.4105
1313305113086,17.4368
1313305173086,17.4553
1313305233095,17.4517
1313305293095,17.4510
1313305353095,17.4631
1313305413095,17.4264
1313305473095,17.4806
1313305533095,17.4401
1313305593095,17.4301
1313305653095,17.3986
1313305713095,17.4257
1313305773095,17.4488
1313305833095,17.4724
1313305893095,17.4743
1313305953095,17.4134
1313306013095,17.4383
1313306073095,17.4657
1313306133095,17.4206
1313306193095,17.4302
1313306253095,17.4079
1313306313095,17.4300
1313306373095,17.4042
1313306433095,17.4273
1313306493095,17.4131
1313306553095,17.4433
1313306613095,17.4200
1313306673095,17.3904
1313306733095,17.4489
1313306793095,17.4530
1313306853095,17.5020
1313306913095,17.4863
1313306973095,17.4290
1313307033095,17.7931
1313307093095,17.4736
1313307153095,17.4654
1313307213095,17.4553
1313307273095,17.5024
1313307333095,17.4229
1313307393095,17.4540
1313307453095,17.4520
1313307513095,17.4468
1313307573095,17.4504
1313307633095,17.4303
1313307693095,17.4253
1313307753095,17.4688
1313307813095,17.5255
1313307873095,17.4291
1313307933095,17.4476
1313307993095,17.5310
1313308053095,17.4585
1313308113095,17.4499
1313308173095,17.4477
1313308233095,17.4396
1313308293095,17.5127
1313308353095,17.4775
1313308413095,17.4541
1313308473095,17.4217
1313308533095,17.4724
1313308593095,17.4609
1313308653095,17.4804
1313308713095,17.4685
1313308773095,17.4701
1313308833104,17.4283
1313308893104,17.4646
1313308953104,17.4284
1313309013104,17.4430
1313309073104,17.4618
1313309133104,17.4408
1313309193104,17.4952
1313309253104,17.4507
1313309313104,17.4567
1313309373104,17.4773
1313309433104,17.4729
1313309493104,17.4565
1313309553104,17.4431
1313309613104,17.4476
1313309673104,17.4195
1313309733104,17.3950
1313309793104,17.4541
1313309853104,17.4508
1313309913104,17.4979
1313309973104,17.4209
1313310033104,17.4180
1313310093104,17.4786
1313310153104,17.4706
1313310213104,17.4298
1313310273104,17.4464
1313310333104,17.4803
1313310393104,17.4517
1313310453104,17.4690
1313310513104,17.4328
1313310573104,17.4794
1313310633104,17.5088
1313310693104,17.4526
1313310753104,17.4381
1313310813104,17.4749
1313310873104,17.4741
1313310933104,17.4574
1313310993104,17.4401
1313311053104,17.4375
1313311113104,17.4579
1313311173104,17.4520
1313311233104,17.4358
1313311293104,17.4793
1313311353104,17.4806
1313311413104,17.4178
1313311473104,17.4634
1313311533104,17.4970
1313311593104,17.4698
1313311653104,17.4818
1313311713104,17.4715
1313311773104,17.4487
1313311833104,17.4792
1313311893104,17.4958
1313311953104,17.4839
1313312013104,17.4774
1313312073104,17.4643
1313312133104,17.4915
1313312193104,17.5106
1313312253104,17.4816
1313312313104,17.4567
1313312373104,17.4822
1313312433113,17.4660
1313312493113,17.4888
1313312553113,17.4536
1313312613113,17.5177
1313312673113,17.4807
1313312733113,17.4513
1313312793113,17.4960
1313312853113,17.4809
1313312913113,17.5167
1313312973113,17.4751
1313313033113,17.4588
1313313093113,17.4543
1313313153113,17.3980
1313313213113,17.4774
1313313273113,17.4456
1313313333113,17.4871
1313313393113,17.5084
1313313453113,17.4349
1313313513113,17.4370
1313313573113,17.4848
1313313633113,17.4445
1313313693113,17.4916
1313313753113,17.5193
1313313813113,17.4876
1313313873113,17.4159
1313313933113,17.4641
1313313993113,17.4639
1313314053113,17.4732
1313314113113,17.4883
1313314173113,17.4829
1313314233113,17.4730
1313314293113,17.4486
1313314353113,17.5272
1313314413113,17.5242
1313314473113,17.4863
1313314533113,17.4768
1313314593113,17.4849
1313314653113,17.5812
1313314713113,17.4671
1313314773113,17.4700
1313314833113,17.4996
1313314893113,17.4925
1313314953113,17.4766
1313315013113,17.4792
1313315073113,17.4728
1313315133113,17.4651
1313315193113,17.4945
1313315253113,17.4788
1313315313113,17.4417
1313315373113,17.4461
1313315433113,17.4722
1313315493113,17.4526
1313315553113,17.4853
1313315613113,17.4844
1313315673113,17.4584
1313315733113,17.4933
1313315793113,17.4937
1313315853113,17.4939
1313315913113,17.4503
1313315973113,17.4694
1313316033123,17.4250
1313316093123,17.4633
1313316153123,17.4585
1313316213123,17.4346
1313316273123,17.4555
1313316333123,17.4199
1313316393123,17.4716
1313316453123,17.4485
1313316513123,17.4431
1313316573123,17.4707
1313316633123,17.4605
1313316693123,17.4524
1313316753123,17.4225
1313316813123,17.4706
1313316873123,17.5087
1313316933123,17.4542
1313316993123,17.5078
1313317053123,17.5243
1313317113123,17.4889
1313317173123,17.5202
1313317233123,17.5112
1313317293123,17.5351
1313317353123,17.5422
1313317413123,17.4785
1313317473123,17.4951
1313317533123,17.5121
1313317593123,17.5203
1313317653123,17.5012
1313317713123,17.5321
1313317773123,17.5515
1313317833123,17.5546
1313317893123,17.5674
1313317953123,17.5034
1313318013123,17.4730
1313318073123,17.4902
1313318133123,17.5441
1313318193123,17.5040
1313318253123,17.4784
1313318313123,17.4768
1313318373123,17.4952
1313318433123,17.5385
1313318493123,17.5050
1313318553123,17.4680
1313318613123,17.4856
1313318673123,17.4711
1313318733123,17.5153
1313318793123,17.4745
1313318853123,17.4729
1313318913123,17.5388
1313318973123,17.5279
1313319033123,17.4834
1313319093123,17.4885
1313319153123,17.5139
1313319213123,17.5229
1313319273123,17.5298
1313319333123,17.5001
1313319393123,17.4776
1313319453123,17.5090
1313319513123,17.4890
1313319573123,17.5022
1313319633132,17.5199
1313319693132,17.4893
1313319753132,17.4973
1313319813132,17.4931
1313319873132,17.4917
1313319933132,17.4693
1313319993132,17.5281
1313320053132,17.5594
1313320113132,17.4968
1313320173132,17.5210
1313320233132,17.5037
1313320293132,17.5752
1313320353132,17.5123
1313320413132,17.4888
1313320473132,17.4860
1313320533132,17.5285
1313320593132,17.5306
1313320653132,17.5200
1313320713132,17.5015
1313320773132,17.5569
1313320833132,17.5486
1313320893132,17.5417
1313320953132,17.4850
1313321013132,17.5420
1313321073132,17.5583
1313321133132,17.5921
1313321193132,17.5661
1313321253132,17.5848
1313321313132,17.5139
1313321373132,17.5660
1313321433132,17.5969
1313321493132,17.5577
1313321553132,17.5569
1313321613132,17.5583
1313321673132,17.5372
1313321733132,17.6292
1313321793132,17.5936
1313321853132,17.5964
1313321913132,17.5382
1313321973132,17.5691
1313322033132,17.5410
1313322093132,17.5606
1313322153132,17.5800
1313322213132,17.5033
1313322273132,17.5405
1313322333132,17.5131
1313322393132,17.5243
1313322453132,17.5922
1313322513132,17.5312
1313322573132,17.5384
1313322633132,17.5166
1313322693132,17.5492
1313322753132,17.5078
1313322813132,17.5328
1313322873132,17.5316
1313322933132,17.5240
1313322993132,17.5419
1313323053132,17.5241
1313323113132,17.5385
1313323173132,17.5617
1313323233141,17.5530
1313323293141,17.5334
1313323353141,17.5529
1313323413141,17.5679
1313323473141,17.5147
1313323533141,17.6037
1313323593141,17.4961
1313323653141,17.5330
1313323713141,17.4493
1313323773141,17.5139
1313323833141,17.5222
1313323893141,17.5570
1313323953141,17.5121
1313324013141,17.5494
1313324073141,17.5093
1313324133141,17.5300
1313324193141,17.5030
1313324253141,17.4930
1313324313141,17.5173
1313324373141,17.5404
1313324433141,17.5330
1313324493141,17.4844
1313324553141,17.5387
1313324613141,17.5226
1313324673141,17.5313
1313324733141,17.5075
1313324793141,17.5348
1313324853141,17.5173
1313324913141,17.4678
1313324973141,17.4869
1313325033141,17.5307
1313325093141,17.4976
1313325153141,17.5181
1313325213141,17.5212
1313325273141,17.5789
1313325333141,17.5048
1313325393141,17.5724
1313325453141,17.5318
1313325513141,17.5350
1313325573141,17.5271
1313325633141,17.5763
1313325693141,17.5501
1313325753141,17.4668
1313325813141,17.5484
1313325873141,17.5516
1313325933141,17.5209
1313325993141,17.5935
1313326053141,17.5444
1313326113141,17.6080
1313326173141,17.6386
1313326233141,17.5737
1313326293141,17.6237
1313326353141,17.5754
1313326413141,17.5445
1313326473141,17.6081
1313326533141,17.6031
1313326593141,17.6293
1313326653141,17.5839
1313326713141,17.5848
1313326773141,17.6216
1313326833151,17.6288
1313326893151,17.5624
1313326953151,17.5667
1313327013151,17.5579
1313327073151,17.5978
1313327133151,17.6026
1313327193151,17.5782
1313327253151,17.6139
1313327313151,17.5832
1313327373151,17.7114
1313327433151,17.6056
1313327493151,17.6638
1313327553151,17.6220
1313327613151,17.6589
1313327673151,17.6194
1313327733151,17.6113
1313327793151,17.6372
1313327853151,17.5988
1313327913151,17.5871
1313327973151,17.5655
1313328033151,17.6150
1313328093151,17.6099
1313328153151,17.4307
1313328213151,17.5685
1313329353151,17.5153
1313329413151,17.4383
1313329473151,17.5970
1313329533151,17.5619
1313329593151,17.5522
1313329653151,17.5841
1313329713151,17.5260
1313329773151,17.5723
1313329833151,17.5842
1313329893151,17.5677
1313329953151,17.5995
1313330013151,17.6115
1313330073151,17.6154
1313330133151,17.8686
1313330193151,17.5896
1313330253151,17.6173
1313330313151,17.6291
1313330373151,17.6040
1313330433161,17.6097
1313330493161,17.6039
1313330553161,17.5578
1313330613161,17.5848
1313330673161,17.5991
1313330733161,17.5559
1313330793161,17.5327
1313330853161,17.6102
1313330913161,17.6089
1313330973161,17.5771
1313331033161,17.6152
1313331093161,17.6040
1313331153161,17.6438
1313331213161,17.5980
1313331273161,17.5890
1313331333161,17.6092
1313331393161,17.6011
1313331453161,17.6200
1313331513161,17.6220
1313331573161,17.6500
1313331633161,17.6215
1313331693161,17.6366
1313331753161,17.6135
1313331813161,17.5989
1313331873161,17.5884
1313331933161,17.6255
1313331993161,17.6048
1313332053161,17.5908
1313332113161,17.6048
1313332173161,17.5893
1313332233161,17.5886
1313332293161,17.6174
1313332353161,17.5588
1313332413161,17.5851
1313332473161,17.5975
1313332533161,17.6203
1313332593161,17.6556
1313332653161,17.6257
1313332713161,17.6419
1313332773161,17.6779
1313332833161,17.6239
1313332893161,17.6659
1313332953161,17.6595
1313333013161,17.6671
1313333073161,17.6528
1313333133161,17.7068
1313333193161,17.7027
1313333253161,17.7262
1313333313161,17.6630
1313333373161,17.6570
1313333433161,17.6866
1313333493161,17.6664
1313333553161,17.6239
1313333613161,17.6351
1313333673161,17.6789
1313333733161,17.6182
1313333793161,17.6475
1313333853161,17.6309
1313333913161,17.6032
1313333973161,17.6596
1313334033171,17.6598
1313334093171,17.6333
1313334153171,17.6130
1313334213171,17.6714
1313334273171,17.6338
1313334333171,17.6882
1313334393171,17.6927
1313334453171,17.6325
1313334513171,17.6492
1313334573171,17.6338
1313334633171,17.6434
1313334693171,17.6469
1313334753171,17.6347
1313334813171,17.6338
1313334873171,17.6416
1313334933171,17.6268
1313334993171,17.5989
1313335053171,17.6186
1313335113171,17.6242
1313335173171,17.6100
1313335233171,17.5662
1313335293171,17.5563
1313335353171,17.6027
1313335413171,17.5757
1313335473171,17.5661
1313335533171,17.6146
1313335593171,17.5663
1313335653171,17.5720
1313335713171,17.6218
1313335773171,17.5725
1313335833171,17.6246
1313335893171,17.6466
1313335953171,17.6035
1313336013171,17.6366
1313336073171,17.6634
1313336133171,17.5839
1313336193171,17.5832
1313336253171,17.6205
1313336313171,17.6176
1313336373171,17.5965
1313336433171,17.5815
1313336493171,17.5504
1313336553171,17.6070
1313336613171,17.5818
1313336673171,17.5995
1313336733171,17.5844
1313336793171,17.5878
1313336853171,17.5729
1313336913171,17.6367
1313336973171,17.5910
1313337033171,17.5615
1313337093171,17.5537
1313337153171,17.6078
1313337213171,17.5689
1313337273171,17.6031
1313337333171,17.6245
1313337393171,17.6433
1313337453171,17.5842
1313337513171,17.6640
1313337573171,17.6220
1313337633181,17.6511
1313337693181,17.6605
1313337753181,17.6386
1313337813181,17.6787
1313337873181,17.6564
1313337933181,17.6630
1313337993181,17.6384
1313338053181,17.5883
1313338113181,17.6071
1313338173181,17.6208
1313338233181,17.6466
1313338293181,17.5973
1313338353181,17.5880
1313338413181,17.6407
1313338473181,17.5638
1313338533181,17.6310
1313338593181,17.6139
1313338653181,17.5802
1313338713181,17.6224
1313338773181,17.6286
1313338833181,17.5993
1313338893181,17.6229
1313338953181,17.5996
1313339013181,17.6117
1313339073181,17.6184
1313339133181,17.5514
1313339193181,17.5986
1313339253181,17.5777
1313339313181,17.5894
1313339373181,17.5740
1313339433181,17.5760
1313339493181,17.6061
1313339553181,17.5739
1313339613181,17.5783
1313339673181,17.5779
1313339733181,17.6330
1313339793181,17.6145
1313339853181,17.5688
1313339913181,17.5566
1313339973181,17.5908
1313340033181,17.5634
1313340093181,17.5952
1313340153181,17.5439
1313340213181,17.5750
1313340273181,17.5683
1313340333181,17.5578
1313340393181,17.5342
1313340453181,17.6151
1313340513181,17.5867
1313340573181,17.5742
1313340633181,17.5346
1313340693181,17.5951
1313340753181,17.5652
1313340813181,17.5400
1313340873181,17.5615
1313340933181,17.5566
1313340993181,17.5525
1313341053181,17.5698
1313341113181,17.5536
1313341173181,17.5666
1313341233192,17.6122
1313341293192,17.5706
1313341353192,17.5573
1313341413192,17.5306
1313341473192,17.5066
1313341533192,17.5267
1313341593192,17.5141
1313341653192,17.5551
1313341713192,17.5465
1313341773192,17.5768
1313341833192,17.5798
1313341893192,17.5627
1313341953192,17.5839
1313342013192,17.5998
1313342073192,17.5196
1313342133192,17.5785
1313342193192,17.5240
1313342253192,17.5744
1313342313192,17.5550
1313342373192,17.5861
1313342433192,17.5708
1313342493192,17.5389
1313342553192,17.5361
1313342613192,17.6801
1313342673192,17.6714
1313342733192,17.6622
1313342793192,17.6381
1313342853192,17.5947
1313342913192,17.5957
1313342973192,17.6011
1313343033192,17.6271
1313343093192,17.6082
1313343153192,17.6314
1313343213192,17.6138
1313343273192,17.6005
1313343333192,17.6016
1313343393192,17.6010
1313343453192,17.5641
1313343513192,17.6131
1313343573192,17.6127
1313343633192,17.5781
1313343693192,17.6094
1313343753192,17.6037
1313343813192,17.6022
1313343873192,17.6259
1313343933192,17.5589
1313343993192,17.5816
1313344053192,17.6123
1313344113192,17.6229
1313344173192,17.5860
1313344233192,17.5857
1313344293192,17.6172
1313344353192,17.6437
1313344413192,17.6107
1313344473192,17.5771
1313344533192,17.5535
1313344593192,17.5589
1313344653192,17.6215
1313344713192,17.6434
1313344773192,17.5888
1313344833203,17.5607
1313344893203,17.5259
1313344953203,17.5404
1313345013203,17.5750
1313345073203,17.5776
1313345133203,17.5724
1313345193203,17.5677
1313345253203,17.5168
1313345313203,17.5753
1313345373203,17.6172
1313345433203,17.5732
1313345493203,17.5547
1313345553203,17.5539
1313345613203,17.5480
1313345673203,17.5269
1313345733203,17.5557
1313345793203,17.5465
1313345853203,17.5199
1313345913203,17.5195
1313345973203,17.5306
1313346033203,17.5126
1313346093203,17.5592
1313346153203,17.4840
1313346213203,17.5469
1313346273203,17.5722
1313346333203,17.4634
1313346393203,17.5456
1313346453203,17.5507